Simultaneous Nadir Overpasses (SNOs) Predictions

Prediction of SNOs between METOP-A and TERRA Satellite Orbit:

Table of predicted SNOs for the next 14.0 days since TLE Epoch: 12/28/2013
Index Date (METOP-A) Time (METOP-A) Lat,Lon (METOP-A) SZA (METOP-A ) Date (TERRA) Time (TERRA) Lat,Lon (TERRA) SZA (TERRA ) Distance(km) Time Diff (sec)
1 12/29/2013 12:08:03 81.33, 45.44 107.11 12/29/2013 12:08:30 81.34, 45.62 107.15 3.18 27
2 12/29/2013 12:58:43 -81.33,-146.98 72.87 12/29/2013 12:57:57 -81.33,-146.84 72.88 2.22 46
3 01/01/2014 07:42:24 81.33, 111.80 106.87 01/01/2014 07:42:45 81.32, 111.83 106.88 0.53 21
4 01/01/2014 08:33:03 -81.33, -80.22 73.07 01/01/2014 08:32:11 -81.34, -80.23 73.09 0.70 52
5 01/04/2014 03:16:46 81.32, 178.11 106.56 01/04/2014 03:17:00 81.32, 178.24 106.58 2.29 14
6 01
